User: anonymous   Login
Location: Stamford Observatory
(41.1241°N, 73.5498°W)
Time: 23:30:01
(UTC-05:00)
Language:

IRS-P3 - Orbit

View from above orbital plane
View from above orbital plane
View from above satellite
View from above satellite

Ground track
Ground track

The orbit data is extracted from the following two-line orbital elements,

1 23827U 96017A   17055.47502891  .00000031  00000-0  33402-4 0  9999
2 23827  98.7163 354.4115 0003723  20.1563 339.9761 14.22494479 86382
Epoch (UTC): 24 February 2017 11:24:02
Eccentricity: 0.0003723
inclination: 98.7163°
perigee height: 814 km
apogee height: 819 km
right ascension of ascending node: 354.4115°
argument of perigee: 20.1563°
revolutions per day: 14.22494479
mean anomaly at epoch: 339.9761°
orbit number at epoch: 8638

The dashed part of the orbit path shows where the satellite is in the earth's shadow,  

DLR